COPENHAGEN/KASTRUP current weather conditions

sailwx.info

Wind from 230 at 17 knots

Air temperature 7.0° C
Visibility: greater than 5.4 NM
Dewpoint 4.0° C

Last reported at 2019-Dec-08 20:50 UTC.
Time now 2019-Dec-08 21:58 UTC

Location: N 55°38' E 012°40'.
View on Google Maps.

See reports from other nearby stations

  
Tides and Currents Weather Stations Pressure Air Temp Water Temp Dewpoint Dewpoint Depression Visibility Wind Speed Wind Dir Waves Ship Positions
date/time (UTC)wind fromknots sea level pressurealtimeterstation pressurevisibilityair tempwater tempwave heightnotes
2019-Dec-08 20:50 230 17 5.4 7.0
2019-Dec-08 20:20 230 13 5.4 7.0
2019-Dec-08 19:50 230 17 5.4 7.0
2019-Dec-08 19:20 240 19 5.4 8.0
2019-Dec-08 18:50 240 17 5.4 8.0
2019-Dec-08 18:20 240 18 5.4 8.0
2019-Dec-08 17:50 230 13 5.4 8.0
2019-Dec-08 17:20 240 14 5.4 8.0
2019-Dec-08 16:50 250 15 5.4 8.0
2019-Dec-08 16:20 250 20 4.9 7.0 Light rain showers.
2019-Dec-08 15:50 250 14 3.2 9.0 Rain showers.
2019-Dec-08 15:20 240 19 5.4 9.0
2019-Dec-08 14:50 240 20 5.4 9.0 Light rain showers.
2019-Dec-08 14:20 230 19 gusting 29 5.4 9.0 Light rain showers.
2019-Dec-08 13:50 230 20 5.4 9.0
2019-Dec-08 13:20 230 21 4.3 9.0 Light rain.
2019-Dec-08 12:50 230 20 4.9 9.0 Light rain.
2019-Dec-08 12:20 220 20 3.8 8.0 Light rain.
2019-Dec-08 11:48 220 22 3.8 8.0 Light rain.
2019-Dec-08 11:20 220 21 gusting 34 4.9 8.0 Light rain.
2019-Dec-08 10:55 220 22 gusting 33 2.7 8.0 Light rain.
2019-Dec-08 10:53 220 22 gusting 33 2.7 8.0 Light rain.
2019-Dec-08 10:20 220 21 5.4 8.0 Light rain.
2019-Dec-08 09:50 210 20 gusting 32 4.9 8.0 Light rain.
2019-Dec-08 09:20 210 20 3.2 7.0 Rain.
2019-Dec-08 08:50 210 20 3.8 7.0 Rain.
2019-Dec-08 08:20 210 20 gusting 31 4.9 8.0 Light rain.
2019-Dec-08 07:50 220 21 5.4 8.0 Light rain.
2019-Dec-08 07:20 210 20 5.4 8.0
2019-Dec-08 06:50 210 18 gusting 27 5.4 8.0
2019-Dec-08 06:20 210 18 5.4 7.0 Light rain.
2019-Dec-08 05:50 200 15 5.4 7.0 Light rain.
2019-Dec-08 05:20 200 18 4.3 7.0 Light rain.
2019-Dec-08 04:50 200 13 5.4 7.0 Rain.
2019-Dec-08 04:20 210 15 5.4 7.0 Light rain.
2019-Dec-08 03:50 210 14 5.4 7.0 Light rain.
2019-Dec-08 03:20 210 13 5.4 7.0 Light rain.
2019-Dec-08 02:50 220 13 5.4 7.0 Light rain.
2019-Dec-08 01:50 210 11 5.4 7.0 Light rain.
2019-Dec-08 01:20 210 8 4.9 6.0 Light rain.
2019-Dec-08 00:50 220 8 5.4 6.0 Light rain.
2019-Dec-08 00:20 220 12 5.4 6.0 Light rain.
2019-Dec-07 23:50 220 9 5.4 6.0
2019-Dec-07 23:20 230 7 5.4 6.0 Light drizzle.
2019-Dec-07 22:50 240 8 5.4 6.0
2019-Dec-07 22:20 250 9 5.4 6.0
2019-Dec-07 21:50 250 8 5.4 5.0
2019-Dec-07 21:20 260 8 5.4 5.0
2019-Dec-07 20:50 260 8 5.4 5.0
2019-Dec-07 20:20 250 8 5.4 5.0
2019-Dec-07 19:50 260 9 5.4 5.0
2019-Dec-07 19:20 260 9 5.4 6.0
2019-Dec-07 18:50 270 12 5.4 6.0
2019-Dec-07 18:20 280 12 5.4 6.0
2019-Dec-07 17:50 280 9 5.4 7.0
2019-Dec-07 17:20 270 12 5.4 6.0
2019-Dec-07 16:50 270 12 5.4 6.0
2019-Dec-07 16:20 270 13 5.4 7.0
2019-Dec-07 15:50 270 14 5.4 7.0
2019-Dec-07 15:20 270 13 5.4 7.0
2019-Dec-07 14:50 270 15 5.4 7.0
2019-Dec-07 14:20 270 15 5.4 7.0
2019-Dec-07 13:50 280 13 5.4 7.0
2019-Dec-07 13:20 280 18 5.4 7.0
2019-Dec-07 12:50 290 13 5.4 7.0
2019-Dec-07 12:20 290 20 gusting 32 5.4 6.0 Light rain.
2019-Dec-07 11:50 280 20 5.4 8.0
2019-Dec-07 11:20 280 19 gusting 28 5.4 8.0
2019-Dec-07 10:50 290 20 5.4 8.0
2019-Dec-07 10:20 290 18 gusting 27 5.4 8.0
2019-Dec-07 09:50 280 18 5.4 8.0
2019-Dec-07 09:20 290 19 gusting 28 5.4 8.0
2019-Dec-07 08:50 290 20 5.4 7.0
2019-Dec-07 08:20 280 18 gusting 28 5.4 7.0
2019-Dec-07 07:50 290 18 gusting 28 5.4 7.0
2019-Dec-07 07:20 290 18 5.4 8.0
2019-Dec-07 06:50 270 15 2.4 9.0 Light drizzle.
2019-Dec-07 06:20 250 13 2.4 8.0 Light drizzle.
2019-Dec-07 05:50 230 12 5.4 8.0
2019-Dec-07 05:20 230 13 5.4 8.0
2019-Dec-07 04:50 230 13 5.4 8.0
2019-Dec-07 04:20 230 13 5.4 8.0
2019-Dec-07 03:51 230 13 5.4 8.0
2019-Dec-07 03:22 230 13 2.2 8.0 Light rain.
2019-Dec-07 02:53 230 15 5.4 8.0 Light rain.
2019-Dec-07 02:20 230 17 2.2 8.0 Light rain.
2019-Dec-07 01:51 230 17 2.2 8.0 Light rain.
2019-Dec-07 01:20 220 17 5.4 8.0
2019-Dec-07 00:50 220 17 5.4 8.0
2019-Dec-07 00:20 220 19 5.4 8.0
2019-Dec-06 23:50 220 15 5.4 7.0
2019-Dec-06 23:20 220 14 3.2 7.0 Light rain.
2019-Dec-06 22:50 210 14 4.3 7.0 Light rain.
2019-Dec-06 22:20 220 15 3.2 7.0 Light rain.
2019-Dec-06 21:50 220 15 4.3 7.0
2019-Dec-06 21:20 220 15 5.4 7.0